GAOFEN-1

Last updated on Mon Jun 22 2026 00:02:51 GMT+0000 (Coordinated Universal Time)

1 39150U 13018A 26172.53563603 .00000311 00000+0 51792-4 0 9992 2 39150 97.9088 244.5158 0015737 251.0160 108.9345 14.76540302708881
UTC large
Height (km)
Speed (km/s)
/
Latitude / Longitude
Inclination (degrees)
Orbital Period (minutes)
Azimuth
Elevation
Range (km)
Doppler Factor

Next 0 passes for location: London (51.5072 / 0.1276)

No passes found over London.
GAOFEN-1